Probability
52 39 29 19 6 0 0 0 0 0 0 0 0 0 0 0 3 0 3 10 10 16 29 48 52 42 35 42 45 52 42 39 42 39 39 39 29 26 23 23 32 26 32 32 29 29 39 35 32
39 29 16 6 0 0 0 0 0 0 0 0 0 0 0 3 3 3 6 10 10 10 23 35 42 48 39 42 45 45 39 35 42 32 32 39 32 32 29 32 32 32 29 26 26 32 29 29 35
35 23 13 3 0 0 0 0 0 0 0 0 0 0 0 3 3 3 6 10 10 13 16 45 45 39 39 35 35 32 32 39 35 29 35 29 32 32 32 32 29 26 26 26 32 32 26 26 29
3 3 6 0 0 0 0 0 0 0 0 0 0 0 0 3 3 6 10 10 10 10 13 39 48 42 35 32 35 32 29 32 32 35 26 26 26 26 23 23 19 13 19 23 29 29 32 32 29
3 3 3 0 0 0 0 0 0 3 0 0 0 0 0 6 6 6 6 10 10 13 26 35 45 42 35 39 35 32 29 29 32 29 23 23 23 26 23 13 10 13 16 13 23 23 26 32 32
3 0 0 0 0 0 0 0 0 0 0 0 6 0 0 10 6 6 6 6 10 6 26 39 48 42 42 35 32 32 29 32 29 29 19 26 23 23 19 16 10 10 13 16 16 23 19 23 32
3 0 0 0 0 0 0 0 0 0 0 0 0 0 0 3 6 6 6 6 10 6 19 32 29 32 48 39 39 35 32 26 23 13 13 16 19 23 16 23 13 13 10 13 19 19 23 23 19
0 0 0 0 0 0 0 3 3 3 3 0 0 0 0 3 6 6 6 6 3 3 6 19 10 23 19 26 42 32 26 29 19 19 13 13 16 13 13 13 13 16 13 10 16 16 23 26 19
0 0 0 0 0 0 3 6 6 6 3 6 6 0 0 3 3 6 6 6 6 3 6 10 6 6 6 6 23 23 19 16 13 6 10 3 3 3 6 6 10 16 16 13 6 10 13 16 19
0 0 0 0 0 0 0 3 3 0 0 3 6 3 3 3 3 6 6 6 6 6 3 6 6 6 6 6 3 3 6 3 3 3 3 3 3 3 6 6 13 16 16 13 10 6 3 6 0
0 0 0 3 0 0 0 3 0 0 0 0 0 6 3 3 3 6 6 6 6 6 6 6 6 6 3 3 3 3 3 3 3 3 3 3 3 3 3 3 6 6 6 3 3 3 6 0 0
0 0 0 0 3 0 0 0 0 0 0 0 0 3 3 3 3 3 6 6 6 10 10 3 3 3 3 3 3 3 3 3 3 3 3 3 3 3 3 3 3 3 0 0 0 0 0 0 0
0 0 3 0 0 0 0 0 0 0 3 6 3 3 3 3 3 3 6 6 6 6 6 6 3 3 3 3 3 3 3 3 3 3 3 3 3 0 0 0 0 3 0 0 0 0 0 0 0
0 0 0 0 0 0 0 0 0 0 3 0 3 3 0 0 0 0 3 6 6 6 6 6 3 3 3 3 3 3 3 3 3 3 3 3 0 0 0 0 0 0 0 0 0 0 0 0 0
0 0 0 0 0 0 0 0 0 3 0 0 0 0 3 3 3 3 3 10 6 6 6 6 3 3 3 3 3 3 3 3 3 3 3 3 0 0 0 3 0 0 0 0 0 0 0 0 0
0 0 0 0 0 0 0 0 0 3 0 0 0 0 0 0 3 3 6 6 3 6 6 6 6 3 3 3 3 3 3 3 3 0 0 3 0 0 0 0 0 0 0 0 0 0 0 0 0
0 0 0 0 0 0 0 0 0 3 0 0 0 0 0 0 0 6 6 6 6 6 10 10 6 6 6 3 6 3 3 3 3 0 0 0 0 0 0 0 0 0 0 0 0 0 0 0 0
0 0 0 0 0 0 0 0 0 0 0 0 0 0 0 0 0 3 3 3 6 3 10 6 6 6 6 3 3 0 0 3 0 0 0 0 0 0 0 0 0 0 0 0 0 0 0 0 0
0 0 0 0 0 0 0 0 0 0 0 0 0 0 0 0 0 0 0 6 3 6 0 3 6 6 3 0 3 3 0 0 0 0 0 0 0 0 0 0 0 0 0 0 0 0 0 0 0
0 0 0 0 0 0 0 0 0 0 0 0 0 0 0 0 0 6 3 3 3 6 3 3 3 3 0 0 3 3 3 0 0 0 0 0 0 0 0 0 0 0 0 0 0 0 0 0 0
0 0 0 0 0 0 0 0 0 0 0 0 0 0 0 0 0 6 6 6 3 3 3 3 3 0 0 0 0 0 0 0 0 0 0 0 0 0 0 0 0 0 0 0 0 0 0 0 0
0 0 0 0 0 0 0 0 0 0 0 0 0 0 0 0 6 3 6 6 0 6 3 3 3 3 0 0 0 6 0 0 0 3 0 0 0 0 0 0 0 0 0 0 0 0 0 0 0
0 0 0 0 0 0 0 0 0 0 0 0 3 3 3 3 3 3 6 6 3 3 6 3 0 0 0 0 6 3 3 3 0 0 0 0 0 0 0 0 0 0 0 0 0 0 0 0 0
0 0 0 0 0 0 0 0 0 0 0 0 0 3 3 3 3 3 3 6 3 3 3 3 0 0 0 0 3 3 3 3 0 0 0 0 0 0 0 0 0 0 0 0 0 0 0 0 0
0 0 0 0 0 0 0 0 0 0 0 0 0 0 0 0 0 3 3 3 0 0 6 6 3 3 0 0 0 3 3 3 3 3 3 0 0 0 0 0 0 0 0 0 0 0 0 0 0
0 0 0 0 0 0 0 0 0 0 0 0 0 0 0 0 0 0 0 0 3 0 0 0 0 0 0 0 0 0 0 3 3 3 3 3 3 3 0 0 0 0 0 0 0 0 0 0 0
0 0 0 0 0 0 0 0 0 0 0 0 0 0 0 0 0 0 0 0 0 0 0 0 0 0 0 0 0 0 3 3 3 0 0 3 3 3 0 0 0 0 0 0 0 0 0 0 0
0 0 0 0 0 0 0 0 0 0 0 0 0 0 0 0 0 0 0 0 0 0 0 0 0 0 0 0 0 0 0 0 3 3 0 3 3 3 3 0 0 0 0 0 0 0 0 0 0
0 0 0 0 0 0 0 0 0 0 0 0 0 0 0 0 0 0 0 0 3 3 0 0 0 0 0 0 0 0 0 0 0 3 3 0 3 3 3 0 0 0 0 0 0 0 0 0 0
0 0 0 0 0 0 0 0 0 0 0 0 0 0 0 0 0 0 0 0 3 3 0 0 0 0 0 0 0 0 0 0 0 0 3 3 0 3 3 3 0 0 0 0 0 0 0 0 0
Height
5884 5883 5884 5884 5885 5884 5883 5883 5882 5882 5882 5882 5882 5881 5881 5881 5881 5883 5881 5879 5879 5878 5878 5877 5876 5875 5873 5871 5869 5869 5870 5871 5871 5871 5871 5871 5871 5870 5870 5870 5869 5869 5868 5868 5867 5867 5866 5866 5866
5882 5883 5883 5883 5883 5882 5882 5881 5881 5882 5881 5881 5881 5880 5880 5879 5879 5879 5878 5878 5877 5877 5877 5876 5875 5874 5872 5871 5869 5869 5869 5869 5870 5870 5869 5869 5869 5869 5869 5868 5868 5867 5867 5866 5866 5865 5865 5865 5864
5881 5881 5882 5882 5881 5881 5881 5880 5880 5880 5880 5880 5880 5879 5879 5879 5878 5877 5877 5876 5876 5876 5875 5875 5874 5873 5872 5871 5869 5869 5868 5869 5868 5867 5867 5866 5867 5867 5867 5867 5866 5866 5865 5864 5864 5864 5863 5863 5863
5880 5881 5881 5881 5880 5880 5879 5878 5878 5879 5879 5879 5878 5878 5877 5877 5877 5876 5875 5875 5875 5874 5874 5873 5873 5872 5871 5871 5870 5869 5868 5868 5867 5865 5863 5862 5864 5865 5865 5865 5864 5864 5863 5863 5862 5862 5862 5862 5862
5879 5879 5879 5878 5878 5878 5877 5877 5877 5877 5877 5877 5877 5876 5876 5876 5875 5874 5874 5873 5873 5873 5872 5872 5871 5871 5870 5870 5869 5868 5868 5867 5866 5863 5861 5860 5861 5863 5863 5863 5862 5862 5861 5861 5861 5861 5861 5861 5860
5877 5877 5877 5877 5877 5876 5876 5876 5876 5876 5875 5875 5875 5875 5874 5874 5873 5873 5872 5872 5871 5871 5870 5870 5870 5869 5869 5868 5867 5867 5866 5865 5864 5863 5861 5860 5860 5861 5861 5861 5861 5860 5860 5859 5860 5859 5859 5859 5859
5876 5875 5875 5875 5875 5874 5875 5874 5874 5874 5874 5873 5873 5873 5872 5872 5872 5871 5870 5870 5870 5869 5868 5868 5868 5867 5867 5866 5866 5865 5865 5864 5863 5862 5861 5860 5860 5859 5859 5859 5859 5859 5858 5858 5858 5858 5858 5858 5857
5873 5874 5873 5873 5873 5873 5873 5873 5873 5872 5872 5872 5871 5871 5871 5871 5870 5869 5869 5868 5868 5867 5867 5866 5866 5865 5865 5864 5864 5863 5862 5862 5861 5860 5859 5859 5858 5858 5857 5857 5857 5856 5856 5856 5856 5856 5856 5856 5856
5870 5872 5871 5871 5871 5871 5871 5871 5871 5870 5870 5869 5869 5869 5869 5868 5868 5868 5867 5867 5866 5865 5865 5864 5864 5863 5863 5862 5861 5861 5860 5860 5859 5858 5857 5857 5856 5856 5855 5855 5854 5854 5854 5854 5854 5854 5854 5854 5854
5868 5868 5869 5869 5869 5869 5869 5869 5869 5868 5868 5867 5867 5866 5866 5866 5866 5865 5865 5865 5864 5864 5863 5862 5862 5861 5861 5860 5859 5858 5858 5857 5856 5855 5855 5854 5854 5853 5853 5853 5852 5852 5852 5852 5852 5852 5852 5852 5852
5865 5866 5866 5866 5866 5867 5867 5867 5867 5866 5866 5865 5865 5864 5863 5863 5863 5863 5863 5862 5862 5862 5861 5860 5859 5859 5858 5858 5857 5856 5855 5855 5854 5853 5852 5851 5851 5851 5851 5850 5850 5850 5850 5850 5850 5850 5850 5850 5850
5863 5864 5864 5864 5864 5864 5864 5864 5864 5864 5864 5863 5862 5861 5861 5861 5860 5860 5860 5859 5859 5859 5858 5858 5857 5856 5856 5855 5854 5854 5853 5852 5851 5850 5849 5848 5848 5848 5848 5848 5848 5847 5848 5848 5848 5848 5848 5848 5847
5861 5861 5861 5862 5862 5861 5862 5862 5862 5861 5861 5860 5859 5859 5858 5858 5858 5857 5857 5856 5856 5856 5855 5855 5855 5854 5853 5852 5852 5851 5850 5849 5848 5847 5846 5846 5845 5845 5845 5845 5845 5845 5845 5846 5846 5846 5846 5845 5845
5859 5859 5859 5859 5860 5859 5859 5859 5859 5859 5858 5857 5857 5856 5855 5855 5855 5855 5854 5854 5853 5853 5853 5852 5852 5851 5850 5850 5849 5848 5847 5846 5845 5844 5843 5843 5842 5842 5842 5842 5842 5842 5843 5843 5843 5844 5844 5843 5843
5857 5857 5857 5857 5857 5857 5857 5856 5856 5856 5855 5855 5854 5853 5853 5853 5852 5852 5851 5851 5850 5850 5850 5849 5849 5848 5848 5847 5846 5845 5844 5843 5843 5842 5841 5840 5839 5839 5839 5839 5839 5839 5840 5840 5841 5841 5841 5841 5841
5855 5855 5855 5855 5854 5854 5855 5854 5853 5852 5852 5851 5851 5851 5850 5850 5850 5849 5848 5848 5847 5847 5847 5846 5846 5845 5844 5843 5843 5842 5841 5840 5839 5839 5838 5837 5836 5836 5836 5836 5836 5836 5837 5837 5838 5838 5839 5839 5839
5852 5852 5852 5852 5851 5851 5851 5851 5850 5849 5849 5848 5848 5848 5848 5847 5847 5846 5845 5844 5844 5844 5844 5843 5843 5842 5841 5840 5839 5839 5838 5837 5836 5836 5835 5834 5833 5833 5833 5833 5833 5833 5834 5835 5835 5836 5836 5837 5837
5850 5850 5849 5849 5848 5848 5848 5847 5847 5846 5846 5846 5845 5845 5845 5844 5843 5843 5842 5841 5841 5841 5841 5840 5840 5839 5838 5837 5836 5835 5835 5834 5833 5833 5832 5831 5831 5830 5830 5830 5830 5831 5832 5832 5833 5833 5833 5834 5834
5847 5847 5847 5846 5845 5845 5844 5844 5844 5843 5843 5842 5842 5842 5841 5841 5840 5839 5839 5838 5838 5838 5838 5837 5837 5836 5835 5834 5833 5833 5832 5831 5830 5829 5829 5828 5828 5827 5827 5827 5828 5828 5829 5829 5830 5830 5831 5831 5831
5845 5844 5844 5843 5842 5842 5841 5841 5841 5840 5840 5839 5838 5838 5838 5838 5837 5837 5836 5836 5835 5835 5834 5834 5833 5833 5832 5831 5830 5829 5829 5827 5827 5826 5825 5825 5824 5824 5824 5824 5825 5825 5825 5826 5826 5827 5827 5828 5828
5842 5842 5841 5841 5840 5839 5839 5839 5838 5837 5837 5836 5836 5836 5835 5835 5835 5834 5834 5833 5832 5832 5831 5830 5830 5829 5828 5827 5826 5826 5825 5824 5823 5822 5822 5821 5821 5821 5821 5821 5821 5822 5822 5822 5823 5824 5824 5825 5825
5839 5838 5838 5837 5837 5836 5836 5836 5836 5834 5834 5834 5833 5833 5832 5832 5832 5831 5830 5830 5829 5829 5828 5827 5826 5825 5825 5824 5823 5822 5822 5821 5819 5819 5818 5818 5818 5818 5818 5818 5818 5819 5819 5820 5820 5821 5821 5822 5822
5836 5835 5835 5834 5834 5834 5833 5832 5833 5832 5831 5831 5830 5830 5829 5829 5828 5827 5827 5826 5825 5825 5824 5823 5822 5822 5821 5820 5820 5820 5819 5817 5816 5815 5815 5815 5814 5815 5815 5815 5815 5816 5816 5817 5817 5818 5818 5818 5818
5833 5833 5832 5831 5831 5831 5830 5829 5829 5828 5828 5827 5827 5826 5826 5826 5825 5824 5823 5822 5822 5821 5820 5819 5819 5818 5818 5817 5817 5816 5815 5814 5813 5812 5812 5811 5811 5811 5811 5812 5812 5812 5813 5814 5814 5814 5815 5815 5815
5831 5831 5830 5829 5828 5828 5826 5826 5827 5826 5825 5825 5824 5824 5823 5822 5822 5821 5820 5819 5818 5817 5816 5815 5815 5814 5814 5813 5813 5812 5812 5811 5810 5809 5808 5808 5808 5808 5808 5809 5809 5810 5810 5811 5811 5811 5811 5811 5811
5828 5828 5828 5827 5825 5824 5823 5822 5824 5822 5822 5821 5821 5820 5820 5819 5818 5817 5817 5816 5814 5813 5812 5812 5811 5810 5809 5809 5808 5808 5807 5807 5806 5806 5805 5805 5805 5805 5805 5806 5806 5806 5807 5807 5808 5808 5808 5808 5808
5824 5824 5824 5823 5822 5821 5820 5820 5820 5819 5818 5818 5817 5817 5816 5816 5815 5814 5813 5812 5811 5810 5809 5808 5807 5806 5805 5804 5804 5804 5803 5803 5802 5802 5801 5801 5802 5802 5802 5802 5803 5803 5803 5804 5804 5804 5804 5804 5804
5821 5820 5820 5819 5818 5817 5817 5816 5817 5815 5815 5814 5814 5813 5812 5812 5811 5810 5809 5808 5807 5806 5805 5804 5803 5802 5801 5801 5800 5799 5799 5799 5798 5798 5798 5798 5797 5797 5798 5798 5798 5799 5799 5800 5799 5800 5800 5800 5800
5818 5817 5816 5816 5815 5814 5813 5815 5813 5812 5811 5811 5810 5809 5808 5807 5807 5806 5805 5804 5803 5802 5801 5799 5798 5797 5797 5796 5795 5795 5795 5794 5793 5793 5793 5793 5793 5793 5793 5794 5794 5794 5794 5795 5795 5795 5795 5795 5795
5814 5813 5813 5812 5811 5810 5809 5812 5809 5808 5807 5806 5805 5805 5804 5803 5802 5801 5800 5799 5798 5797 5796 5795 5794 5793 5792 5791 5790 5790 5790 5789 5788 5788 5787 5788 5788 5788 5788 5788 5788 5789 5789 5789 5789 5789 5789 5790 5790
Wind_Speed
5 5 5 5 5 5 4 4 3 3 3 3 3 3 4 4 4 5 5 5 5 5 5 6 6 7 6 6 6 6 6 6 7 7 8 8 7 7 7 7 7 7 7 7 7 7 7 7 7
5 5 6 6 6 6 6 4 4 4 3 3 3 4 4 4 4 5 5 6 6 6 6 6 6 7 6 6 6 6 6 7 7 8 8 8 8 8 8 8 8 8 8 7 7 7 7 7 7
6 6 6 7 7 7 6 5 4 4 4 4 4 5 5 4 5 6 6 6 7 7 7 7 7 7 7 7 6 6 7 7 7 8 9 9 9 9 8 8 8 8 8 7 7 7 7 7 6
6 7 7 8 8 7 7 5 4 5 5 5 5 5 5 5 6 6 6 6 6 7 7 8 7 7 8 8 7 7 7 7 7 8 8 9 8 8 9 8 9 8 8 7 7 7 7 6 7
8 8 8 8 8 7 7 6 6 5 6 6 6 6 6 5 6 6 7 7 7 7 7 8 8 8 8 8 7 7 7 8 8 8 8 8 8 8 9 9 9 9 9 8 7 7 7 7 7
9 8 8 8 8 8 8 7 6 6 7 8 8 7 7 7 7 7 7 7 7 7 8 8 8 8 8 8 8 8 9 8 8 8 7 7 8 9 9 9 8 8 8 7 7 6 7 7 7
10 9 9 9 8 8 8 8 7 7 8 8 8 8 8 7 7 8 8 8 8 8 8 8 9 9 9 9 9 9 9 9 8 8 8 8 9 9 9 9 8 8 8 7 7 7 7 7 7
10 10 10 9 9 8 8 8 8 8 9 9 9 8 9 9 8 8 8 8 8 8 8 8 9 9 9 10 10 9 9 9 9 9 9 10 10 10 9 9 9 8 8 7 7 7 7 7 7
11 11 10 10 9 9 9 9 8 8 10 10 10 9 9 9 9 9 9 8 9 9 9 9 9 9 10 10 11 11 11 10 10 10 10 10 10 10 9 9 9 8 8 8 8 7 7 8 8
11 11 11 11 10 10 9 9 8 8 9 10 10 11 11 10 10 9 10 9 9 9 9 10 10 10 10 11 11 11 11 11 11 11 11 11 10 10 10 9 9 9 9 9 8 8 8 9 9
11 11 11 11 10 10 10 10 9 9 10 10 11 11 11 10 10 10 11 10 10 9 10 10 11 11 11 11 11 11 11 11 12 12 12 11 11 10 10 10 9 9 9 8 9 9 9 9 9
11 11 11 11 11 11 11 11 11 10 10 10 11 11 11 10 10 11 11 11 10 10 10 10 10 11 11 11 11 11 11 12 12 12 12 11 11 11 10 10 9 9 9 8 8 8 8 8 8
10 11 11 11 11 11 11 12 11 11 10 11 11 11 11 11 11 11 11 11 11 11 11 11 11 10 11 11 11 11 12 12 12 11 11 11 11 11 11 10 9 9 9 9 8 8 7 8 8
9 10 10 10 11 11 12 12 11 11 11 11 11 10 10 11 11 11 11 11 11 11 11 11 11 11 11 11 12 12 11 11 11 11 11 11 10 10 10 10 10 10 9 9 9 8 8 8 8
10 11 11 10 11 11 11 12 11 11 11 11 11 11 11 11 11 11 11 11 11 11 11 11 11 11 11 11 11 11 11 11 10 10 10 10 10 10 10 10 10 10 10 10 9 9 9 9 9
10 11 11 11 11 11 11 11 11 11 11 11 11 11 11 11 11 11 12 11 11 12 11 11 11 11 11 11 11 11 11 10 10 9 9 9 9 9 10 10 10 11 10 11 11 10 10 9 9
9 10 10 11 11 11 11 11 11 11 11 11 11 11 11 11 11 11 11 12 11 11 12 11 11 11 11 11 11 11 11 10 10 10 9 9 9 9 9 9 10 10 10 11 10 10 10 10 9
9 9 10 10 11 11 11 11 11 10 10 10 11 10 10 10 11 11 11 11 10 11 11 11 11 10 10 11 11 11 11 11 10 10 10 9 9 9 10 10 10 10 10 10 10 11 11 11 11
9 10 10 11 11 12 11 11 11 11 10 10 10 10 10 10 11 11 11 11 11 11 11 10 10 10 10 11 11 11 11 12 12 11 10 10 10 10 10 10 10 10 11 11 11 12 12 12 11
10 10 11 11 11 12 12 11 11 11 10 10 11 10 10 9 10 11 11 12 12 12 12 11 10 10 11 11 11 11 12 12 12 12 12 11 10 10 10 11 11 11 11 12 11 11 12 12 12
10 11 11 11 12 12 12 11 11 11 11 10 10 10 9 9 10 10 11 11 12 12 12 11 11 11 11 10 10 11 12 13 13 13 12 12 11 11 11 11 11 11 11 11 11 11 11 12 12
9 10 11 11 12 12 12 11 11 11 10 10 10 10 10 10 11 11 11 11 12 12 11 12 12 12 12 11 11 12 12 13 13 13 12 12 12 11 11 11 11 11 11 10 10 11 11 12 12
9 9 10 11 11 11 11 12 11 11 10 10 10 10 11 12 12 12 12 12 12 12 12 13 13 13 13 12 12 12 12 13 13 12 12 12 12 12 12 12 12 11 11 11 10 11 11 11 11
10 10 10 11 12 12 12 12 11 10 10 10 10 10 11 12 13 12 12 12 13 13 13 13 13 14 14 14 13 13 13 13 13 13 13 13 13 13 12 12 13 12 12 11 11 11 12 12 12
10 11 11 11 11 11 11 11 10 11 11 11 11 11 11 12 12 12 13 13 13 13 13 13 14 14 15 15 14 14 14 14 14 13 13 13 13 13 13 13 13 13 12 12 12 12 12 12 12
10 11 11 11 11 11 11 11 11 11 11 10 11 11 11 11 12 13 13 13 13 14 14 14 15 15 15 15 15 14 14 14 14 13 13 13 13 13 13 13 14 13 13 13 13 13 12 13 13
11 11 11 12 12 13 12 12 12 11 11 10 11 11 11 11 12 13 13 13 13 14 14 15 15 16 16 15 16 15 16 16 15 14 14 13 14 15 15 15 15 14 14 14 14 14 14 14 14
11 11 11 12 12 13 14 13 12 11 11 11 11 12 12 13 13 13 13 13 13 14 15 15 16 16 16 16 16 16 16 16 16 16 16 15 15 15 15 14 15 15 15 15 15 15 15 15 15
12 12 13 14 14 14 15 14 13 13 13 13 13 13 14 14 14 14 14 14 14 14 15 15 16 16 16 17 17 17 17 16 17 17 18 17 17 16 16 16 16 16 16 17 17 17 17 17 17
13 13 13 14 14 14 15 15 14 13 14 15 15 15 15 15 15 15 16 16 15 15 15 15 16 16 16 17 17 17 18 18 18 19 19 18 18 18 18 18 18 18 19 19 19 19 18 18 18
Wind_Direction
239 242 241 248 256 256 254 258 270 283 290 300 299 290 291 287 274 277 279 285 290 292 297 302 307 313 316 311 300 292 282 280 282 282 281 280 280 284 287 288 288 286 284 277 271 271 272 269 271
244 246 244 246 252 256 256 264 276 283 296 295 290 293 299 295 278 277 278 283 287 289 295 300 305 306 308 305 301 293 282 279 284 282 278 277 279 282 285 287 285 285 285 276 270 270 271 269 270
251 252 252 252 255 260 257 259 272 282 290 293 293 295 301 297 284 278 277 282 283 285 291 296 300 301 301 302 297 290 286 286 286 286 281 275 276 277 281 284 285 283 282 277 267 267 267 268 268
253 255 254 255 255 258 260 266 269 280 290 295 294 296 295 292 289 284 280 283 284 285 288 291 295 298 296 296 295 294 292 288 289 291 287 276 274 274 279 283 282 281 280 278 268 263 263 265 266
252 254 256 259 262 264 266 275 283 284 288 290 293 296 292 289 287 285 284 285 286 286 285 286 289 292 293 291 289 291 288 286 289 292 290 279 274 275 279 283 282 277 276 273 269 264 260 265 269
252 254 256 260 264 264 267 272 282 288 288 286 290 293 290 290 289 290 289 288 287 287 286 286 284 286 288 288 287 286 286 286 289 292 291 284 277 277 279 281 282 280 277 271 266 266 264 267 269
254 256 255 259 264 267 270 275 281 282 284 285 284 287 290 290 290 293 292 290 289 286 285 285 283 283 285 286 285 284 284 283 284 287 288 282 279 278 277 280 280 277 274 268 263 262 264 266 267
253 258 259 261 264 269 274 277 279 283 284 284 284 287 288 288 289 292 293 293 292 289 285 282 283 284 285 287 288 284 283 282 282 283 283 283 281 280 280 282 279 276 272 270 268 263 261 266 266
251 254 258 261 263 266 271 280 283 285 284 283 283 283 285 287 288 287 289 292 290 288 285 283 282 285 288 289 287 285 285 285 285 286 285 283 282 283 281 281 276 273 271 270 268 264 261 264 264
252 252 255 260 263 267 271 280 284 282 284 286 284 284 283 284 285 285 285 286 286 285 285 286 285 287 287 289 290 289 288 288 289 288 286 287 285 283 280 278 274 271 268 263 258 256 257 259 260
254 253 255 259 262 268 272 275 280 280 282 282 282 282 282 283 282 282 282 281 279 279 280 281 284 288 289 288 289 289 287 288 291 290 287 286 283 281 276 273 272 268 264 261 259 257 257 259 261
252 252 257 260 263 268 273 277 280 281 282 282 282 283 283 285 284 283 282 278 278 278 279 278 278 281 285 287 289 289 287 288 290 290 288 285 281 277 273 272 269 266 264 261 260 261 263 267 273
250 252 255 259 263 272 277 279 282 286 285 282 284 285 283 285 285 286 284 280 279 280 278 279 284 281 283 288 290 291 289 287 288 290 289 286 279 274 272 269 264 261 260 260 261 263 263 265 269
253 257 260 261 264 272 276 279 281 286 288 285 285 286 287 288 287 287 286 282 281 281 280 281 286 283 285 288 290 288 288 290 291 289 285 284 279 274 271 266 259 256 255 256 257 256 255 260 266
254 258 260 261 267 273 274 277 281 282 283 282 281 285 289 288 287 288 284 280 278 278 276 280 284 282 279 281 285 288 287 289 292 292 286 282 276 272 268 265 257 256 254 254 253 254 255 259 265
258 260 263 267 269 270 272 278 280 279 278 280 279 282 287 289 288 286 280 278 277 278 277 280 283 283 280 280 284 289 288 289 292 295 294 285 275 268 266 265 261 259 255 253 253 255 258 261 263
266 265 266 267 268 271 274 278 281 281 282 282 281 282 285 287 287 286 280 277 278 278 276 277 286 284 282 282 283 284 283 287 288 288 291 287 278 270 265 266 267 261 255 253 254 256 258 261 264
277 273 273 274 276 279 280 278 282 283 285 284 283 281 281 282 283 282 280 278 281 281 279 278 285 287 289 286 284 282 281 283 282 284 283 283 279 272 268 268 267 263 258 256 258 259 261 263 264
272 274 279 281 277 277 280 281 283 285 285 287 283 281 281 278 275 277 278 277 278 281 278 279 282 285 287 287 287 285 282 280 278 281 279 276 276 271 267 266 265 263 262 260 259 262 262 263 265
272 278 281 281 278 277 280 280 285 286 284 284 279 284 283 279 275 275 277 278 278 279 277 277 279 282 283 283 283 282 282 280 279 278 273 270 272 270 268 267 265 263 264 262 263 264 263 262 265
278 280 280 279 279 277 276 279 284 284 284 286 288 287 285 282 279 275 277 283 281 280 279 275 274 278 280 283 284 281 281 280 280 276 272 268 268 264 266 269 266 263 263 262 262 264 263 263 265
285 284 282 279 277 277 280 280 281 283 283 287 290 287 284 284 284 282 281 283 281 282 283 280 278 278 279 283 286 279 279 280 279 277 273 268 264 262 262 263 263 265 264 263 265 267 266 266 265
288 285 285 281 276 279 280 279 280 281 282 283 285 285 284 286 286 286 288 285 285 287 286 283 283 283 280 279 282 281 280 281 279 277 273 270 264 262 261 263 262 262 262 261 264 267 267 266 265
288 287 287 286 283 282 282 280 284 287 285 280 279 283 285 288 291 289 291 287 284 285 285 285 283 281 279 277 278 277 277 279 279 277 274 271 268 265 263 263 262 258 257 260 263 265 267 266 265
289 289 288 289 283 282 281 280 285 287 288 286 284 284 284 287 288 290 289 287 285 284 284 285 285 281 278 275 274 275 273 277 277 274 273 271 269 265 265 262 260 258 260 262 264 265 265 264 265
287 288 291 292 289 287 286 285 288 286 289 288 289 287 283 282 283 285 285 284 283 281 282 283 285 284 281 274 271 272 270 271 273 269 267 267 268 267 264 261 261 261 262 263 262 264 265 267 266
282 283 283 284 285 283 285 288 288 283 285 288 291 289 285 281 282 284 284 283 281 279 279 279 281 281 282 277 274 272 272 270 267 266 265 266 266 266 266 263 260 260 261 262 263 263 264 267 267
277 277 279 281 280 280 284 288 290 286 287 290 288 285 283 282 282 283 283 283 283 282 279 278 278 279 279 279 275 271 270 269 269 268 268 268 266 264 267 267 264 261 261 261 262 263 264 266 267
278 276 277 278 277 278 281 285 288 287 288 287 287 286 283 282 283 283 282 284 283 283 282 279 278 278 277 278 276 272 268 266 268 268 267 266 264 262 263 264 263 263 261 260 261 263 263 264 266
278 279 280 281 281 283 284 285 287 287 286 288 288 285 285 285 283 283 285 286 284 285 283 280 279 278 277 276 277 274 271 269 269 269 267 264 262 261 262 263 263 263 264 263 261 262 262 263 264